Storm Lake, IA

8:42 AM CST on December 08, 2016 (GMT -0600)
Storm Lake Municipal

Weather History for KSLB - December, 2013

Change the Weather History Date:

Saturday, December 7, 2013

  Actual Average Record
Temperature  
Mean Temperature -2 °F -  
Max Temperature 8 °F 35 °F 50 °F (1999)
Min Temperature -11 °F 20 °F -11 °F (2013)
Degree Days  
Heating Degree Days 66    
Moisture  
Dew Point -9 °F    
Average Humidity 65    
Maximum Humidity 79    
Minimum Humidity 48    
Precipitation  
Precipitation 0.00 in - - ()
Sea Level Pressure  
Sea Level Pressure 30.57 in    
Wind  
Wind Speed 8 mph (ESE)    
Max Wind Speed 14 mph    
Max Gust Speed -    
Visibility 10 miles    
Events Rain , Snow    
Averages and records for this station are not official NWS values.
T = Trace of Precipitation, MM = Missing Value Source: NWS Daily Summary

Daily Weather History Graph

Daily Weather History Graph

Search for Another Location

Airport or City:

Trip Planner

Search our weather history database for the weather conditions in past years. The results will help you decide how hot, cold, wet, or windy it might be!

Date:

Astronomy

Dec. 07, 2013 Rise Set
Actual Time 7:37 AM CST 4:47 PM CST
Civil Twilight 7:05 AM CST 5:19 PM CST
Nautical Twilight 6:30 AM CST 5:54 PM CST
Astronomical Twilight 5:56 AM CST 6:28 PM CST
Moon 11:18 AM CST (12/7) 10:35 PM CST (12/7)
Length of Visible Light 10h 13m
Length of Day
9h 09m
Waxing Crescent, 29% of the Moon is Illuminated
Dec 7
Waxing Crescent
Dec 9
First Quarter
Dec 17
Full
Dec 25
Last Quarter
Jan 1
New

Hourly Weather History & Observations

Time (CST) Temp. Windchill Dew Point Humidity Pressure Visibility Wind Dir Wind Speed Gust Speed Precip Events Conditions
12:15 AM -5.8 °F - -13.0 °F 71% 30.61 in 10.0 mi North - - N/A   Clear
12:35 AM -5.8 °F - -13.0 °F 71% 30.61 in 10.0 mi North - - N/A   Clear
1:15 AM -7.6 °F - -13.0 °F 77% 30.61 in 10.0 mi North - - N/A   Clear
1:35 AM -7.6 °F - -14.8 °F 71% 30.62 in 10.0 mi North - - N/A   Clear
1:55 AM -9.4 °F - -14.8 °F 77% 30.62 in 10.0 mi North - - N/A   Clear
2:15 AM -7.6 °F - -13.0 °F 77% 30.63 in 10.0 mi North - - N/A   Clear
2:35 AM -7.6 °F - -14.8 °F 71% 30.64 in 10.0 mi North - - N/A   Clear
2:55 AM -7.6 °F - -14.8 °F 71% 30.64 in 10.0 mi North - - N/A   Clear
3:15 AM -7.6 °F - -14.8 °F 71% 30.63 in 10.0 mi North - - N/A   Clear
3:35 AM -7.6 °F - -14.8 °F 71% 30.64 in 10.0 mi North - - N/A   Clear
3:55 AM -9.4 °F - -16.6 °F 71% 30.63 in 10.0 mi North - - N/A   Clear
4:15 AM -7.6 °F - -14.8 °F 71% 30.63 in 10.0 mi North - - N/A   Clear
4:35 AM -7.6 °F - -14.8 °F 71% 30.63 in 10.0 mi North - - N/A   Clear
4:55 AM -7.6 °F - -14.8 °F 71% 30.63 in 10.0 mi North - - N/A   Clear
5:15 AM -9.4 °F - -16.6 °F 71% 30.63 in - North - - N/A   Clear
5:35 AM -9.4 °F - -16.6 °F 71% 30.64 in 10.0 mi North - - N/A   Clear
5:55 AM -11.2 °F - -16.6 °F 77% 30.63 in 10.0 mi North - - N/A   Clear
6:15 AM -9.4 °F - -16.6 °F 71% 30.62 in 10.0 mi North - - N/A   Clear
6:35 AM -9.4 °F - -14.8 °F 77% 30.62 in 10.0 mi North - - N/A   Clear
6:55 AM -9.4 °F - -14.8 °F 77% 30.63 in 10.0 mi North - - N/A   Clear
7:15 AM -9.4 °F - -14.8 °F 77% 30.63 in 10.0 mi North - - N/A   Clear
7:35 AM -9.4 °F - -14.8 °F 77% 30.63 in 10.0 mi North - - N/A   Clear
7:55 AM -7.6 °F - -14.8 °F 71% 30.63 in 10.0 mi North - - N/A   Clear
8:15 AM -7.6 °F - -14.8 °F 71% 30.63 in 10.0 mi North - - N/A   Clear
8:35 AM -5.8 °F - -13.0 °F 71% 30.64 in 10.0 mi North - - N/A   Clear
8:55 AM -5.8 °F - -13.0 °F 71% 30.66 in 10.0 mi North - - N/A   Clear
9:15 AM -4.0 °F - -11.2 °F 71% 30.67 in 10.0 mi North - - N/A   Clear
9:35 AM -4.0 °F - -11.2 °F 71% 30.67 in 10.0 mi North - - N/A   Clear
9:55 AM -2.2 °F - -11.2 °F 66% 30.67 in 10.0 mi North - - N/A   Clear
10:15 AM -0.4 °F - -9.4 °F 66% 30.66 in 10.0 mi North - - N/A   Clear
10:35 AM -0.4 °F - -7.6 °F 72% 30.66 in 10.0 mi North - - N/A   Clear
10:55 AM 1.4 °F - -7.6 °F 66% 30.65 in 10.0 mi North - - N/A   Clear
11:15 AM 1.4 °F - -7.6 °F 66% 30.64 in 10.0 mi North - - N/A   Clear
11:35 AM 1.4 °F - -7.6 °F 66% 30.64 in 10.0 mi North - - N/A   Clear
11:55 AM 3.2 °F - -7.6 °F 61% 30.63 in 10.0 mi North - - N/A   Clear
12:15 PM 3.2 °F - -7.6 °F 61% 30.63 in 10.0 mi North - - N/A   Clear
12:35 PM 5.0 °F - -7.6 °F 56% 30.61 in 10.0 mi North - - N/A   Clear
12:55 PM 5.0 °F - -7.6 °F 56% 30.60 in 10.0 mi North - - N/A   Clear
1:15 PM 5.0 °F - -7.6 °F 56% 30.60 in 10.0 mi North - - N/A   Clear
1:35 PM 6.8 °F - -5.8 °F 56% 30.58 in 10.0 mi North - - N/A   Clear
1:55 PM 6.8 °F - -7.6 °F 52% 30.57 in 10.0 mi North - - N/A   Clear
2:15 PM 6.8 °F - -7.6 °F 52% 30.56 in 10.0 mi North - - N/A   Clear
2:35 PM 8.6 °F - -5.8 °F 52% 30.56 in 10.0 mi North - - N/A   Clear
2:55 PM 8.6 °F - -5.8 °F 52% 30.55 in 10.0 mi North - - N/A   Clear
3:15 PM 8.6 °F - -7.6 °F 48% 30.53 in 10.0 mi North - - N/A   Clear
3:35 PM 8.6 °F - -7.6 °F 48% 30.53 in 10.0 mi North - - N/A   Clear
3:55 PM 6.8 °F - -7.6 °F 52% 30.52 in 10.0 mi North - - N/A   Clear
4:15 PM 6.8 °F - -5.8 °F 56% 30.52 in 10.0 mi North - - N/A   Clear
4:35 PM 6.8 °F - -5.8 °F 56% 30.51 in 10.0 mi North - - N/A   Clear
4:55 PM 5.0 °F - -5.8 °F 61% 30.50 in 10.0 mi North - - N/A   Clear
5:15 PM 5.0 °F -6.9 °F -5.8 °F 61% 30.49 in 10.0 mi SE 6.9 mph - N/A   Clear
5:35 PM 6.8 °F -4.8 °F -5.8 °F 56% 30.48 in 10.0 mi SE 6.9 mph - N/A   Clear
5:55 PM 6.8 °F -5.9 °F -4.0 °F 61% 30.48 in 10.0 mi SE 8.1 mph - N/A   Mostly Cloudy
6:15 PM 6.8 °F -4.8 °F -4.0 °F 61% 30.48 in 10.0 mi SE 6.9 mph - N/A   Overcast
6:35 PM 6.8 °F -4.8 °F -4.0 °F 61% 30.47 in 10.0 mi East 6.9 mph - N/A   Overcast
6:55 PM 6.8 °F -6.9 °F -5.8 °F 56% 30.47 in 10.0 mi East 9.2 mph - N/A   Overcast
7:15 PM 8.6 °F - -4.0 °F 57% 30.47 in 10.0 mi North - - N/A   Overcast
7:35 PM 8.6 °F - -5.8 °F 52% 30.48 in 10.0 mi North - - N/A   Overcast
7:55 PM 8.6 °F - -5.8 °F 52% 30.48 in 10.0 mi North - - N/A   Overcast
8:15 PM 8.6 °F - -5.8 °F 52% 30.48 in 10.0 mi North - - N/A   Overcast
8:35 PM 8.6 °F - -4.0 °F 57% 30.48 in 10.0 mi North - - N/A   Overcast
8:55 PM 8.6 °F - -4.0 °F 57% 30.47 in 10.0 mi North - - N/A   Overcast
9:15 PM 8.6 °F - -2.2 °F 62% 30.48 in 10.0 mi North - - N/A   Overcast
9:35 PM 8.6 °F - -2.2 °F 62% 30.47 in 10.0 mi North - - N/A   Overcast
9:55 PM 8.6 °F - -2.2 °F 62% 30.47 in 10.0 mi North - - N/A   Overcast
10:15 PM 8.6 °F - -2.2 °F 62% 30.47 in 10.0 mi North - - N/A   Overcast
10:35 PM 8.6 °F - -2.2 °F 62% 30.46 in 8.0 mi North - - N/A Snow Light Snow
10:55 PM 6.8 °F - -0.4 °F 72% 30.45 in 4.0 mi North - - N/A Rain Light Freezing Rain
11:15 PM 6.8 °F -8.6 °F 1.4 °F 79% 30.44 in 4.0 mi SE 11.5 mph - N/A Snow Light Snow
11:35 PM 6.8 °F -10.0 °F 1.4 °F 79% 30.43 in 3.0 mi SE 13.8 mph - N/A Snow Light Snow
11:55 PM 6.8 °F -10.0 °F 1.4 °F 79% 30.41 in 3.0 mi ESE 13.8 mph - N/A Snow Light Snow